Regional Weather Roundup
Issued by NWS

Home | Current Version | Previous Version | Text Only | Print | Product List | Glossary Off
Versions: 1 2 3 4 5 6 7 8 9 10 11 12 13 14 15 16 17 18 19 20 21 22 23 24 25 26 27 28 29 30 31 32 33 34 35 36 37 38 39 40 41 42 43 44 45 46 47 48 49 50

000
ASUS43 KOAX 310310
RWRNE

WEATHER ROUNDUP FOR NEBRASKA
NATIONAL WEATHER SERVICE OMAHA NE
1000 PM CDT TUE AUG 30 2016

NOTES: SATELLITE DATA IS BEING USED TO AUGMENT CLOUD COVER ABOVE
       12000 FEET.
       "FAIR" INDICATES FEW OR NO CLOUDS BELOW 12,000 FEET WITH NO
       SIGNIFICANT WEATHER AND/OR OBSTRUCTIONS TO VISIBILITY.

  * THESE STATIONS DO NOT REPORT WEATHER SUCH AS RAIN...SNOW OR FOG.

NEZ001>004-019>022-054>056-310400-
NEBRASKA PANHANDLE

CITY           SKY/WX    TMP DP  RH WIND       PRES   REMARKS
SCOTTSBLUFF    CLEAR     67  59  75 E7        30.25R
ALLIANCE       CLOUDY    61  58  90 S7        30.25R
CHADRON        CLEAR     72  54  53 S9        30.20R
KIMBALL        CLEAR     61  57  85 SE5       30.31R
SIDNEY         PTCLDY    63  60  90 SE6       30.29R
$$

NEZ057>060-069>072-079>082-310400-
SOUTHWEST NEBRASKA

CITY           SKY/WX    TMP DP  RH WIND       PRES   REMARKS
NORTH PLATTE   CLOUDY    66  64  93 E6        30.24R
IMPERIAL       PTCLDY    65  62  90 SE7       30.25R
LEXINGTON      CLOUDY    71  64  80 E7        30.24R
MCCOOK         MOCLDY    69  66  90 E6        30.23R
OGALLALA       PTCLDY    69  63  81 SE5       30.25R
$$

NEZ005>010-023>029-035>040-094-310400-
NORTH CENTRAL NEBRASKA

CITY           SKY/WX    TMP DP  RH WIND       PRES   REMARKS
VALENTINE      CLOUDY    71  63  75 SE6       30.21R
AINSWORTH      CLEAR     66  63  89 SE5       30.22R
BROKEN BOW     CLOUDY    63  63 100 CALM      30.24R
O`NEILL        PTCLDY    72  65  78 SE5       30.22R
ORD            CLOUDY    71  65  81 SE3       30.21R
THEDFORD       PTCLDY    70  62  75 S7        30.25R
$$

NEZ041-046>049-061>064-073>077-083>087-310400-
SOUTH CENTRAL NEBRASKA

CITY           SKY/WX    TMP DP  RH WIND       PRES   REMARKS
GRAND ISLAND   CLOUDY    70  68  93 E3        30.22R
AURORA         CLOUDY    69  69 100 E3        30.22R
HASTINGS       CLOUDY    70  68  93 E3        30.23R
HEBRON         LGT RAIN  71  69  93 NE5       30.19R
HOLDREGE       CLOUDY    69  65  88 E6        30.23R
KEARNEY *      CLOUDY    70  66  88 SE5       30.22R
YORK           CLOUDY    68  68 100 CALM      30.21S
$$

NEZ011>018-030>034-042>045-310400-
NORTHEAST NEBRASKA

CITY           SKY/WX    TMP DP  RH WIND       PRES   REMARKS
NORFOLK        CLOUDY    70  66  87 CALM      30.20R
ALBION         MOCLDY    69  66  90 CALM      30.21R
BLAIR          CLOUDY    73  69  87 CALM      30.18R
FREMONT        CLOUDY    71  69  94 CALM      30.19R
TEKAMAH        CLOUDY    71  69  93 CALM      30.17R
WAYNE          PTCLDY    69  69  97 CALM      30.20R
$$

NEZ050>053-065>068-078-088>093-310400-
SOUTHEAST NEBRASKA

CITY           SKY/WX    TMP DP  RH WIND       PRES   REMARKS
LINCOLN        LGT RAIN  73  70  90 N5        30.19R
OMAHA EPPLEY   CLOUDY    75  70  84 CALM      30.17R
BEATRICE       LGT RAIN  72  70  94 NE3       30.17S
FALLS CITY     CLOUDY    73  70  90 N5        30.14R
NEBRASKA CITY  CLOUDY    72  72 100 N5        30.17R
PLATTSMOUTH    DRIZZLE   73  70  89 CALM      30.18R
$$

NEZ044-045-051>053-067-310400-
OMAHA AREA

CITY           SKY/WX    TMP DP  RH WIND       PRES   REMARKS
OMAHA EPPLEY   CLOUDY    75  70  84 CALM      30.17R
BLAIR          CLOUDY    73  69  87 CALM      30.18R
FREMONT        CLOUDY    71  69  94 CALM      30.19R
MILLARD        CLOUDY   N/A N/A N/A CALM      30.17R
OFFUTT AFB     MOCLDY    73  73 100 NE1       30.16R
PLATTSMOUTH    DRIZZLE   73  70  89 CALM      30.18R
WAHOO          CLOUDY    71  69  93 CALM      30.19R
$$




USA.gov is the U.S. government's official web portal to all federal, state and local government web resources and services.